This demonstration page uses our WeatherBlox Daily Observations layout. Learn more.

Left ArrowRight Arrow

34.16533, -84.80231

Hourly Observations for October 11, 2015

Temp ( °F °C ) Dew Point ( °F °C ) Humidity (%) Winds ( mph kmh ) Pressure ( in mb ) Visibility ( mi km ) Precip ( " mm )
12:01 am 00:01 Partly Cloudy 58 14.4 55 12.8 90 90 Calm 30.03 1017 10 16 0.00 0.00
12:53 am 00:53 Clear 56 13.3 55 12.8 97 97 Calm 30.00 1016 10 16 0.00 0.00
1:29 am 01:29 Mostly Cloudy 57 13.9 56 13.3 96 96 Calm 30.03 1017 9 14 0.00 0.00
1:53 am 01:53 Cloudy 57 13.9 56 13.3 96 96 Calm 29.98 1015 10 16 0.00 0.00
2:04 am 02:04 Cloudy 57 13.9 56 13.3 96 96 Calm 30.00 1016 10 16 0.00 0.00
2:26 am 02:26 Cloudy 58 14.4 56 13.3 93 93 Calm 30.03 1017 10 16 0.00 0.00
2:53 am 02:53 Cloudy with Mist and Fog 57 13.9 56 13.3 96 96 Calm 30.00 1016 6 10 0.00 0.00
3:53 am 03:53 Cloudy with Mist and Fog 57 13.9 56 13.3 96 96 Calm 29.99 1016 5 8 0.00 0.00
4:53 am 04:53 Cloudy 57 13.9 57 13.9 100 100 Calm 30.00 1016 7 11 0.00 0.00
5:53 am 05:53 Cloudy 58 14.4 57 13.9 97 97 Calm 30.00 1016 7 11 0.00 0.00
6:53 am 06:53 Cloudy 58 14.4 57 13.9 97 97 Calm 30.01 1016 8 13 0.00 0.00
7:53 am 07:53 Cloudy 58 14.4 57 13.9 97 97 Calm 30.01 1016 7 11 0.00 0.00
8:19 am 08:19 Cloudy with Mist and Fog 59 15 57 13.9 93 93 Calm 30.03 1017 6 10 0.00 0.00
8:53 am 08:53 Cloudy 59 15 57 13.9 93 93 Calm 30.02 1017 8 13 0.00 0.00
9:33 am 09:33 Cloudy 60 15.6 58 14.4 93 93 Calm 30.03 1017 9 14 0.00 0.00
9:53 am 09:53 Cloudy 61 16.1 58 14.4 90 90 Calm 30.03 1017 10 16 0.00 0.00
10:30 am 10:30 Cloudy 63 17.2 58 14.4 84 84 NNE 3 6 30.03 1017 10 16 0.00 0.00
10:53 am 10:53 Mostly Cloudy 65 18.3 58 14.4 78 78 Calm 30.03 1017 10 16 0.00 0.00
11:07 am 11:07 Cloudy 64 17.8 58 14.4 81 81 Calm 30.03 1017 10 16 0.00 0.00
11:53 am 11:53 Cloudy 66 18.9 59 15 78 78 Calm 30.02 1017 10 16 0.00 0.00
12:53 pm 12:53 Cloudy 68 20 58 14.4 70 70 Calm 30.01 1016 10 16 0.00 0.00
1:28 pm 13:28 Cloudy 68 20 58 14.4 70 70 Calm 30.03 1017 10 16 0.00 0.00
1:53 pm 13:53 Partly Cloudy 71 21.7 57 13.9 61 61 Calm 29.98 1015 10 16 0.00 0.00
2:53 pm 14:53 Sunny 71 21.7 57 13.9 61 61 Calm 29.94 1014 10 16 0.00 0.00
3:53 pm 15:53 Sunny 71 21.7 54 12.2 55 55 Calm 29.91 1013 10 16 0.00 0.00
4:53 pm 16:53 Sunny 74 23.3 55 12.8 52 52 N 5 7 29.90 1013 10 16 0.00 0.00
5:53 pm 17:53 Sunny 70 21.1 56 13.3 61 61 Calm 29.89 1012 10 16 0.00 0.00
6:53 pm 18:53 Sunny 61 16.1 59 15 93 93 Calm 29.89 1012 10 16 0.00 0.00
7:53 pm 19:53 Clear 57 13.9 57 13.9 100 100 Calm 29.90 1013 10 16 0.00 0.00
8:53 pm 20:53 Clear 56 13.3 56 13.3 100 100 Calm 29.91 1013 10 16 0.00 0.00
9:53 pm 21:53 Clear 56 13.3 55 12.8 97 97 Calm 29.92 1013 10 16 0.00 0.00
10:53 pm 22:53 Mostly Cloudy 56 13.3 55 12.8 97 97 Calm 29.93 1014 10 16 0.00 0.00
11:53 pm 23:53 Clear 55 12.8 55 12.8 100 100 Calm 29.93 1014 7 11 0.00 0.00

Powered by AerisWeather